Change the Weather History Date:

Tuesday, November 12, 2013

  Actual Average Record
Temperature  
Mean Temperature 38 °F 34 °F  
Max Temperature 43 °F 40 °F 49 °F (1982)
Min Temperature 32 °F 29 °F 12 °F (1977)
Degree Days  
Heating Degree Days 27 31  
Month to date heating degree days 300 356  
Since 1 July heating degree days 1848 2214  
Cooling Degree Days 0    
Month to date cooling degree days 0  
Year to date cooling degree days 6  
Moisture  
Dew Point 18 °F    
Average Humidity 0    
Maximum Humidity 0    
Minimum Humidity 0    
Precipitation  
Precipitation 0.00 in 0.22 in 2.52 in (2004)
Month to date precipitation 1.45 2.69  
Year to date precipitation 58.86 65.09  
Snow  
Snow 0.00 in 0.20 in 5.90 in (1989)
Month to date snowfall T 1.6  
Since 1 July snowfall T 2.7  
Since 1 September snowfall 0.0 2.7  
Snow Depth 0.00 in    
Sea Level Pressure  
Sea Level Pressure 30.08 in    
Wind  
Wind Speed 8 mph (WNW)    
Max Wind Speed 25 mph    
Max Gust Speed 31 mph    
Visibility 10 miles    
Events      
T = Trace of Precipitation, MM = Missing Value Source: NWS Daily Summary

Daily Weather History Graph

Daily Weather History Graph

Search for Another Location

Airport or City:

Trip Planner

Search our weather history database for the weather conditions in past years. The results will help you decide how hot, cold, wet, or windy it might be!

Date:

Astronomy

Nov. 12, 2013 Rise Set
Actual Time 8:49 AM AKST 4:58 PM AKST
Civil Twilight 8:05 AM AKST 5:42 PM AKST
Nautical Twilight 7:17 AM AKST 6:30 PM AKST
Astronomical Twilight 6:31 AM AKST 7:15 PM AKST
Moon 3:11 PM AKST (11/12) 2:50 AM AKST (11/12)
Length of Visible Light 9h 37m
Length of Day
8h 08m
Waxing Gibbous, 77% of the Moon is Illuminated
Nov 12
Waxing Gibbous
Nov 17
Full
Nov 25
Last Quarter
Dec 2
New
Dec 9
First Quarter

Hourly Weather History & Observations

Time (AKST) Temp. Windchill Dew Point Humidity Pressure Visibility Wind Dir Wind Speed Gust Speed Precip Events Conditions
12:53 AM 34.0 °F 23.8 °F 18.0 °F 52% 30.04 in 10.0 mi WNW 16.1 mph 31.1 mph N/A   Partly Cloudy
1:53 AM 33.1 °F 22.2 °F 17.1 °F 52% 30.03 in 10.0 mi WNW 17.3 mph 31.1 mph N/A   Partly Cloudy
2:53 AM 33.1 °F 23.9 °F 17.1 °F 52% 30.04 in 10.0 mi WNW 12.7 mph 28.8 mph N/A   Partly Cloudy
3:53 AM 33.1 °F 27.7 °F 16.0 °F 50% 30.04 in 10.0 mi WNW 5.8 mph 28.8 mph N/A   Partly Cloudy
4:53 AM 33.1 °F 23.9 °F 16.0 °F 50% 30.03 in 10.0 mi WNW 12.7 mph 21.9 mph N/A   Clear
5:53 AM 34.0 °F 24.6 °F 15.1 °F 46% 30.03 in 10.0 mi WNW 13.8 mph 21.9 mph N/A   Clear
6:53 AM 32.0 °F 25.6 °F 14.0 °F 48% 30.05 in 10.0 mi West 6.9 mph - N/A   Clear
7:53 AM 34.0 °F 26.0 °F 14.0 °F 44% 30.04 in 10.0 mi WNW 10.4 mph - N/A   Clear
8:53 AM 35.1 °F - 12.0 °F 39% 30.06 in 10.0 mi Calm Calm - N/A   Clear
10:53 AM 39.0 °F 32.3 °F 17.1 °F 41% 30.07 in 10.0 mi WNW 10.4 mph - N/A   Clear
11:53 AM 39.9 °F 33.4 °F 17.1 °F 40% 30.08 in 10.0 mi WNW 10.4 mph 19.6 mph N/A   Clear
12:53 PM 42.1 °F 36.1 °F 17.1 °F 37% 30.08 in 10.0 mi WNW 10.4 mph 18.4 mph N/A   Clear
1:53 PM 43.0 °F 40.3 °F 16.0 °F 34% 30.08 in 10.0 mi Variable 4.6 mph - N/A   Clear
2:53 PM 42.1 °F 36.6 °F 14.0 °F 32% 30.09 in 10.0 mi WNW 9.2 mph - N/A   Scattered Clouds
3:53 PM 39.9 °F 35.8 °F 18.0 °F 41% 30.09 in 10.0 mi WNW 5.8 mph - N/A   Scattered Clouds
4:53 PM 37.9 °F 31.5 °F 19.0 °F 47% 30.09 in 10.0 mi NW 9.2 mph - N/A   Mostly Cloudy
5:53 PM 37.9 °F 32.7 °F 21.9 °F 53% 30.10 in 10.0 mi WNW 6.9 mph - N/A   Mostly Cloudy
6:53 PM 37.0 °F 33.3 °F 23.0 °F 57% 30.11 in 10.0 mi Variable 4.6 mph - N/A   Mostly Cloudy
7:53 PM 37.0 °F 33.3 °F 19.9 °F 50% 30.12 in 10.0 mi WSW 4.6 mph - N/A   Mostly Cloudy
8:53 PM 36.0 °F 33.3 °F 21.9 °F 57% 30.13 in 10.0 mi WNW 3.5 mph - N/A   Mostly Cloudy
9:53 PM 35.1 °F - 23.0 °F 61% 30.14 in 10.0 mi Calm Calm - N/A   Mostly Cloudy
10:53 PM 35.1 °F 32.2 °F 25.0 °F 67% 30.15 in 10.0 mi West 3.5 mph - N/A   Overcast
11:53 PM 34.0 °F 31.0 °F 26.1 °F 73% 30.15 in 10.0 mi West 3.5 mph - N/A   Overcast